DELTA 1 DEB, 19316

Orbit data source: Space-Track

DELTA 1 DEB, 19316 is space debris in SSO originally from a launch on Thu, 29 Jul 1976 UTC launched from the Air Force Western Test Range (AFWTR). Debris objects in space refer to the collection of defunct objects orbiting the Earth. Examples of debris include non-operational satellites, rocket bodies, and fragments generated from explosions, collisions, or faulty payload assembly.

Loading next visibility...
Identifier
19316, 1976-077FK
Orbit
SSO
Country
Flag of USUS
Related business
Manufacturer
Unknown
Mission
Spacecraft
Bus & Motor
Unknown
Mass
Unknown
Launch date (UTC)
1976-07-29 (50 years ago)
Launch vehicle
Unknown
Launch site
Air Force Western Test Range (AFWTR)
Object type
Payload
Rocket body
Debris
Shape & HBR
Unknown shape, 0.1 m
Radar Cross Section
Small (<0.1 m²)

Expand to show TLE details & history
Last TLE update: 1 day ago

TLE from 1 day ago
0 DELTA 1 DEB
1 19316U 76077FK  26125.29454888  .00000308  00000-0  38519-2 0  9990
2 19316 102.1585 260.0728 0210852 131.8770 261.0503 12.03753576806868
Epoch: 2026-05-05T07:04Z
TLE epoch observation values (Epoch: 2026-05-05T07:04:09.023Z)
Latitude
29.84264°
Longitude
-76.20218°
Altitude
1,697.336 km
Speed
7.016 km/s
True Right ascension
16h 52m 01s
True Declination
29° 42' 42"
Sunlit
Object was in daylight at epoch
Visualization orbit readout
Latitude
Unknown
Longitude
Unknown
Altitude
Unknown
Speed
Unknown
Apparent Right ascension
Unknown
Apparent Declination
Unknown
Sunlit
N/A
Visualization observer readout
Local Sidereal Time
02:59:09
Azimuth
Unknown
Elevation
Unknown
Doppler factor
Unknown
Orbital elements
Apogee altitude
1,831.251 km
Perigee altitude
1,492.206 km
Semi-major axis
8,039.866 km
Eccentricity
0.02109
Inclination
102.1585°
RAAN
260.0728°
Arg. of periapsis
131.877°
True anomaly
258.67396°
Mean anomaly
261.0503°
Eccentric anomaly
259.86107°
Mean motion
3.01072 °/min
Orbital period
119.57 mins
BSTAR
0.0038519
Loading maneuver chart data...
Computing Atmospheric mass density...
Loading historical data...
Loading historical data...
Loading historical data...
Loading historical data...
Loading historical data...
Loading historical data...
Loading historical data...

Documentation

Showing up to 5 results
|